Starlink 33782

operational
NORAD ID: 64332 Int'l Des: 2025-124 Owner: SPXS Country: US Constellation: starlink
LEOCIRCULAR

Starlink 33782について

説明を読み込み中...

リアルタイム位置

3D地球を読み込み中...

次回通過

高度履歴

Altitude vs Time

uPlot chart will show altitude changes over time

軌道要素

1 64332U 25124R 26095.58336806 .00062355 00000-0 22568-2 0 9999
2 64332 43.0032 329.7128 0001468 262.8999 138.0266 15.27574693 5851
Epoch: Apr 5, 2026 • Age: 9 hours

現在のステータス

高度 489.7 km
速度 7.62 km/s
衛星直下点 -28.60°S, 9.29°E
打ち上げ日 Jun 10, 2025
運用期間 0.8 years
タイプ internet

技術仕様

分類 Payload
質量 575.00 kg
乾燥質量 530.00 kg
総質量 575.00 kg
長さ 0.30 m
直径 4.10 m
スパン 29.00 m
形状 Box + pan
製造者 SPXS
バスタイプ Starlink V2MO
フェーズステータス In Orbit
所有者/国 SPXS/US

大規模コンステレーション

Loading constellations...